South Haven, MI

6:28 AM EDT on September 27, 2016 (GMT -0400)
South Haven

Weather History for KLWA - February, 2014

Change the Weather History Date:

Sunday, February 2, 2014

  Actual Average (KBIV) Record (KBIV)
Temperature  
Mean Temperature 14 °F 26 °F  
Max Temperature 26 °F 33 °F 50 °F (1968)
Min Temperature 1 °F 20 °F -7 °F (1962)
Degree Days  
Heating Degree Days 52 39  
Month to date heating degree days 78  
Since 1 July heating degree days 3552  
Cooling Degree Days 0 0  
Month to date cooling degree days 0  
Year to date cooling degree days 0  
Moisture  
Dew Point 15 °F    
Average Humidity 80    
Maximum Humidity 92    
Minimum Humidity 71    
Precipitation  
Precipitation 0.00 in 0.04 in 1.18 in (2016)
Month to date precipitation 0.09  
Year to date precipitation 2.18  
Sea Level Pressure  
Sea Level Pressure 30.17 in    
Wind  
Wind Speed 4 mph (NW)    
Max Wind Speed 10 mph    
Max Gust Speed 16 mph    
Visibility 10 miles    
Events Snow    
T = Trace of Precipitation, MM = Missing Value Source: NWS Daily Summary

Daily Weather History Graph

Daily Weather History Graph

Search for Another Location

Airport or City:

Trip Planner

Search our weather history database for the weather conditions in past years. The results will help you decide how hot, cold, wet, or windy it might be!

Date:

Astronomy

Feb. 02, 2014 Rise Set
Actual Time 7:57 AM EST 6:00 PM EST
Civil Twilight 7:27 AM EST 6:30 PM EST
Nautical Twilight 6:54 AM EST 7:03 PM EST
Astronomical Twilight 6:21 AM EST 7:36 PM EST
Moon 9:19 AM EST (2/2) 9:49 PM EST (2/2)
Length of Visible Light 11h 02m
Length of Day
10h 03m
Waxing Crescent, 11% of the Moon is Illuminated
Feb 2
Waxing Crescent
Feb 6
First Quarter
Feb 14
Full
Feb 22
Last Quarter
Mar 1
New

Hourly Weather History & Observations

Time (EST) Temp. Windchill Dew Point Humidity Pressure Visibility Wind Dir Wind Speed Gust Speed Precip Events Conditions
12:15 AM 24.8 °F - 21.7 °F 88% 30.02 in 10.0 mi Calm Calm - N/A   Overcast
12:35 AM 24.8 °F - 21.7 °F 88% 30.03 in 10.0 mi Calm Calm - N/A   Overcast
12:55 AM 24.8 °F - 21.7 °F 88% 30.04 in 10.0 mi Calm Calm - N/A   Overcast
1:15 AM 24.8 °F - 21.7 °F 88% 30.04 in 10.0 mi Calm Calm - N/A   Overcast
1:35 AM 24.8 °F - 21.9 °F 89% 30.05 in 10.0 mi Calm Calm - N/A   Overcast
1:55 AM 24.3 °F - 22.1 °F 91% 30.05 in 10.0 mi Calm Calm - N/A   Overcast
2:15 AM 25.0 °F - 22.5 °F 90% 30.05 in 10.0 mi Calm Calm - N/A   Overcast
2:35 AM 25.9 °F - 22.8 °F 88% 30.05 in 10.0 mi Calm Calm - N/A   Overcast
2:55 AM 26.1 °F - 22.8 °F 88% 30.06 in 10.0 mi Calm Calm - N/A   Overcast
3:15 AM 26.1 °F - 22.8 °F 88% 30.07 in 10.0 mi Calm Calm - N/A   Overcast
3:35 AM 26.2 °F 20.7 °F 22.6 °F 86% 30.07 in 10.0 mi NW 4.6 mph - N/A   Overcast
3:55 AM 26.1 °F 20.5 °F 21.2 °F 82% 30.08 in 10.0 mi NNW 4.6 mph - N/A   Overcast
4:15 AM 25.5 °F 17.8 °F 20.7 °F 82% 30.08 in 10.0 mi NNW 6.9 mph - N/A   Overcast
4:35 AM 25.5 °F 19.9 °F 20.3 °F 81% 30.07 in 10.0 mi NNW 4.6 mph - N/A   Overcast
4:55 AM 25.5 °F 18.7 °F 20.8 °F 82% 30.07 in 10.0 mi NNW 5.8 mph - N/A   Overcast
5:15 AM 25.3 °F 18.5 °F 21.0 °F 84% 30.08 in 10.0 mi NNW 5.8 mph - N/A   Overcast
5:35 AM 25.2 °F 19.5 °F 20.3 °F 82% 30.08 in 10.0 mi NW 4.6 mph - N/A   Overcast
5:55 AM 25.2 °F 18.3 °F 20.3 °F 82% 30.08 in 10.0 mi NNW 5.8 mph - N/A   Overcast
6:15 AM 25.0 °F 19.3 °F 20.3 °F 82% 30.08 in 10.0 mi NNW 4.6 mph - N/A   Overcast
6:35 AM 24.8 °F 17.9 °F 20.3 °F 83% 30.10 in 10.0 mi NW 5.8 mph - N/A   Overcast
6:55 AM 24.6 °F 16.7 °F 20.1 °F 83% 30.10 in 10.0 mi NW 6.9 mph - N/A   Overcast
7:15 AM 24.4 °F 17.5 °F 20.1 °F 84% 30.11 in 10.0 mi NW 5.8 mph - N/A   Overcast
7:35 AM 24.3 °F 17.3 °F 19.8 °F 83% 30.12 in 10.0 mi WNW 5.8 mph - N/A   Overcast
7:55 AM 23.9 °F 15.8 °F 19.2 °F 82% 30.12 in 10.0 mi NW 6.9 mph - N/A   Overcast
8:15 AM 23.9 °F 18.0 °F 18.5 °F 80% 30.13 in 10.0 mi NW 4.6 mph - N/A   Overcast
8:35 AM 23.9 °F 15.0 °F 18.1 °F 79% 30.14 in 10.0 mi NW 8.1 mph - N/A   Overcast
8:55 AM 23.5 °F 14.5 °F 17.6 °F 78% 30.16 in 10.0 mi NW 8.1 mph - N/A   Overcast
9:15 AM 23.4 °F 15.2 °F 16.7 °F 76% 30.15 in 10.0 mi NW 6.9 mph - N/A   Overcast
9:35 AM 23.0 °F 13.9 °F 17.2 °F 79% 30.16 in 10.0 mi NW 8.1 mph - N/A   Overcast
9:55 AM 23.0 °F 13.1 °F 15.8 °F 74% 30.17 in 10.0 mi NW 9.2 mph - N/A   Overcast
10:15 AM 23.0 °F 13.9 °F 16.0 °F 74% 30.19 in 10.0 mi NW 8.1 mph - N/A   Overcast
10:35 AM 23.0 °F 15.8 °F 15.8 °F 74% 30.18 in 10.0 mi NW 5.8 mph - N/A   Overcast
10:55 AM 23.0 °F 13.1 °F 15.8 °F 74% 30.19 in 10.0 mi NW 9.2 mph - N/A   Overcast
11:15 AM 23.0 °F 15.8 °F 15.4 °F 73% 30.21 in 10.0 mi NW 5.8 mph - N/A   Overcast
11:35 AM 23.0 °F 14.7 °F 16.2 °F 75% 30.21 in 10.0 mi NW 6.9 mph - N/A   Overcast
11:55 AM 23.5 °F 13.0 °F 16.5 °F 75% 30.23 in 10.0 mi WNW 10.4 mph - N/A   Overcast
12:15 PM 23.5 °F 13.7 °F 15.4 °F 71% 30.22 in 10.0 mi West 9.2 mph - N/A Snow Light Snow
12:35 PM 23.0 °F 14.7 °F 15.4 °F 73% 30.21 in 10.0 mi NW 6.9 mph - N/A Snow Light Snow
12:55 PM 22.6 °F 13.4 °F 15.6 °F 74% 30.21 in 10.0 mi NW 8.1 mph - N/A Snow Light Snow
1:15 PM 22.1 °F 12.8 °F 14.5 °F 73% 30.20 in 10.0 mi NW 8.1 mph 16.1 mph N/A   Overcast
1:35 PM 21.7 °F 10.8 °F 14.2 °F 73% 30.19 in 10.0 mi NW 10.4 mph 16.1 mph N/A   Overcast
1:55 PM 21.7 °F 11.5 °F 14.0 °F 72% 30.20 in 10.0 mi WNW 9.2 mph 16.1 mph N/A   Overcast
2:15 PM 21.6 °F 11.3 °F 14.2 °F 73% 30.19 in 7.0 mi NW 9.2 mph - N/A Snow Light Snow
2:35 PM 21.2 °F 14.9 °F 15.3 °F 78% 30.19 in 2.5 mi NNW 4.6 mph - N/A Snow Light Snow
2:55 PM 21.9 °F 12.5 °F 15.6 °F 77% 30.21 in 3.0 mi NW 8.1 mph - N/A Snow Light Snow
3:15 PM 21.9 °F 12.5 °F 15.4 °F 76% 30.22 in 5.0 mi NW 8.1 mph - N/A Snow Light Snow
3:35 PM 21.2 °F 12.6 °F 14.7 °F 76% 30.22 in 7.0 mi NNW 6.9 mph - N/A Snow Light Snow
3:55 PM 21.0 °F 10.6 °F 13.1 °F 71% 30.23 in 10.0 mi NNW 9.2 mph - N/A   Overcast
4:15 PM 21.0 °F 12.4 °F 14.0 °F 74% 30.23 in 7.0 mi North 6.9 mph - N/A Snow Light Snow
4:35 PM 21.0 °F 13.4 °F 14.0 °F 74% 30.25 in 10.0 mi NNW 5.8 mph - N/A Snow Light Snow
4:55 PM 21.0 °F 12.4 °F 13.1 °F 71% 30.25 in 10.0 mi North 6.9 mph - N/A   Overcast
5:15 PM 21.0 °F 13.4 °F 13.8 °F 74% 30.25 in 10.0 mi NNW 5.8 mph - N/A   Overcast
5:35 PM 20.8 °F 14.4 °F 12.9 °F 71% 30.25 in 10.0 mi NNW 4.6 mph - N/A   Overcast
5:55 PM 20.8 °F 14.4 °F 13.3 °F 73% 30.27 in 10.0 mi NNW 4.6 mph - N/A   Overcast
6:15 PM 20.3 °F 11.5 °F 13.3 °F 74% 30.26 in 10.0 mi NW 6.9 mph - N/A   Overcast
6:35 PM 20.1 °F 13.6 °F 12.7 °F 73% 30.26 in 10.0 mi North 4.6 mph - N/A   Overcast
6:55 PM 19.4 °F 12.8 °F 12.2 °F 74% 30.26 in 10.0 mi North 4.6 mph - N/A   Mostly Cloudy
7:15 PM 19.2 °F 12.5 °F 12.2 °F 74% 30.26 in 10.0 mi North 4.6 mph - N/A   Mostly Cloudy
7:35 PM 18.7 °F - 12.2 °F 76% 30.26 in 10.0 mi Calm Calm - N/A   Mostly Cloudy
7:55 PM 18.5 °F 13.3 °F 12.2 °F 76% 30.26 in 10.0 mi North 3.5 mph - N/A   Overcast
8:15 PM 16.5 °F - 10.8 °F 78% 30.26 in 10.0 mi Calm Calm - N/A   Scattered Clouds
8:35 PM 11.8 °F - 7.7 °F 83% 30.27 in 10.0 mi Calm Calm - N/A   Clear
8:55 PM 11.8 °F - 9.9 °F 92% 30.25 in 10.0 mi Calm Calm - N/A   Clear
9:15 PM 10.4 °F - 8.4 °F 92% 30.27 in 10.0 mi Calm Calm - N/A   Clear
9:35 PM 7.7 °F - 5.2 °F 89% 30.24 in 7.0 mi Calm Calm - N/A   Clear
9:55 PM 6.8 °F - 4.3 °F 89% 30.25 in 7.0 mi Calm Calm - N/A   Clear
10:15 PM 4.5 °F - 1.8 °F 89% 30.27 in 10.0 mi Calm Calm - N/A   Clear
10:35 PM 4.3 °F - 1.4 °F 88% 30.27 in 10.0 mi Calm Calm - N/A   Clear
10:55 PM 1.8 °F - -1.5 °F 86% 30.26 in 10.0 mi Calm Calm - N/A   Clear
11:15 PM 3.2 °F - -0.0 °F 86% 30.27 in 7.0 mi Calm Calm - N/A   Clear
11:35 PM 3.4 °F - 0.5 °F 88% 30.26 in 10.0 mi Calm Calm - N/A   Clear
11:55 PM 2.1 °F - -1.1 °F 86% 30.28 in 10.0 mi Calm Calm - N/A   Clear